FW1093 Weather Reports


time (UTC)temp
F
wind
direction
speed
knots
gust
knots
rain 1hr
in
rain 24hr
in
rain mn
in
humidity
%
barometer
mb
20260906163319 68 349 0.0 1.7 0.00 0.00 0.00 76 1016.1
20260906162334 67 287 0.0 1.7 0.00 0.00 0.00 78 1016.2
20260906161323 67 289 0.0 1.7 0.00 0.00 0.00 80 1016.1
20260906160337 67 284 0.0 1.7 0.00 0.00 0.00 80 1016.3
20260906155353 67 319 0.0 0.9 0.00 0.00 0.00 81 1016.3
20260906154340 66 285 0.0 0.9 0.00 0.00 0.00 81 1016.4
20260906153328 66 297 0.0 0.9 0.00 0.00 0.00 81 1016.7
20260906152335 66 280 0.0 1.7 0.00 0.00 0.00 80 1016.6
20260906151324 66 277 0.0 0.9 0.00 0.00 0.00 82 1016.6
20260906150332 65 283 0.0 1.7 0.00 0.00 0.00 84 1016.6
20260906145322 65 279 0.0 1.7 0.00 0.00 0.00 83 1016.6
20260906144330 65 291 0.0 0.9 0.00 0.00 0.00 84 1016.6
20260906143317 64 282 0.0 0.9 0.00 0.00 0.00 87 1016.5
20260906142325 64 285 0.0 0.9 0.00 0.00 0.00 87 1016.6
20260906141317 64 278 0.0 0.9 0.00 0.00 0.00 88 1016.5
20260906140325 63 277 0.0 2.6 0.00 0.00 0.00 89 1016.5
20260906135333 63 293 0.0 1.7 0.00 0.00 0.00 89 1016.3
20260906134323 63 319 0.0 0.9 0.00 0.00 0.00 91 1016.3
20260906133358 62 283 0.0 0.9 0.00 0.00 0.00 90 1016.3
20260906132324 62 293 0.0 1.7 0.00 0.00 0.00 91 1016.3
20260906131359 62 280 0.0 0.9 0.00 0.00 0.00 92 1016.3
20260906130327 62 270 0.0 0.9 0.00 0.00 0.00 92 1016.2
20260906125316 61 269 0.0 0.9 0.00 0.00 0.00 93 1016.1
20260906124351 61 293 0.0 1.7 0.00 0.00 0.00 94 1016.1
20260906123319 61 277 0.0 0.9 0.00 0.00 0.00 95 1016.0
20260906122326 60 278 0.0 0.9 0.00 0.00 0.00 96 1015.9
20260906121421 60 278 0.0 0.9 0.00 0.00 0.00 96 1015.7
20260906120326 59 277 0.0 0.9 0.00 0.00 0.00 96 1015.5
20260906115330 59 276 0.0 0.9 0.00 0.00 0.00 97 1015.6
20260906114317 59 276 0.0 0.0 0.00 0.00 0.00 97 1015.4
20260906113324 58 276 0.0 0.0 0.00 0.00 0.00 97 1015.2
20260906112312 58 276 0.0 0.0 0.00 0.00 0.00 97 1015.3
20260906111322 58 276 0.0 0.0 0.00 0.00 0.00 96 1015.2
20260906110329 58 276 0.0 0.0 0.00 0.00 0.00 96 1014.9
20260906105343 58 276 0.0 0.0 0.00 0.00 0.00 96 1014.7
20260906104331 58 276 0.0 0.0 0.00 0.00 0.00 96 1014.6
20260906103319 59 276 0.0 0.0 0.00 0.00 0.00 96 1014.3
20260906102325 58 276 0.0 0.0 0.00 0.00 0.00 96 1014.5
20260906101342 58 276 0.0 0.0 0.00 0.00 0.00 96 1014.4
20260906100329 58 276 0.0 0.0 0.00 0.00 0.00 96 1014.3
20260906095335 58 276 0.0 0.0 0.00 0.00 0.00 95 1014.1
20260906094324 59 276 0.0 0.0 0.00 0.00 0.00 95 1013.9
20260906093314 59 276 0.0 0.0 0.00 0.00 0.00 95 1013.8
20260906092322 59 276 0.0 0.0 0.00 0.00 0.00 95 1013.9
20260906091329 59 276 0.0 0.0 0.00 0.00 0.00 95 1013.7
20260906090316 60 276 0.0 0.0 0.00 0.00 0.00 95 1013.7
20260906085325 60 276 0.0 0.0 0.00 0.00 0.00 95 1013.7
20260906084312 60 276 0.0 0.0 0.00 0.00 0.00 95 1013.6
20260906083322 60 276 0.0 0.0 0.00 0.00 0.00 95 1013.7
20260906082330 60 276 0.0 0.0 0.00 0.00 0.00 95 1013.7
20260906081337 60 276 0.0 0.0 0.00 0.00 0.00 95 1013.6
20260906080333 60 276 0.0 0.0 0.00 0.00 0.00 95 1013.4
20260906075322 60 276 0.0 0.0 0.00 0.00 0.00 94 1013.3
20260906074329 60 276 0.0 0.0 0.00 0.00 0.00 94 1013.3
20260906073320 60 276 0.0 0.0 0.00 0.00 0.00 94 1013.4
20260906072328 60 276 0.0 0.0 0.00 0.00 0.00 94 1013.4
20260906071318 61 276 0.0 0.0 0.00 0.00 0.00 94 1013.6
20260906070326 60 276 0.0 0.9 0.00 0.00 0.00 94 1013.6
20260906065316 60 295 0.0 0.0 0.00 0.00 0.00 93 1013.5
20260906064323 60 295 0.0 0.0 0.00 0.00 0.00 93 1013.5
20260906063316 60 295 0.0 0.0 0.00 0.00 0.00 92 1013.4
20260906062348 61 295 0.0 0.0 0.00 0.00 0.00 92 1013.4
20260906061318 61 295 0.0 0.0 0.00 0.00 0.00 91 1013.6
20260906060349 61 295 0.0 0.0 0.00 0.00 0.00 90 1013.8
20260906055322 62 295 0.0 0.0 0.00 0.00 0.00 90 1013.8
20260906054329 62 295 0.0 0.0 0.00 0.00 0.00 90 1013.7
20260906053317 61 295 0.0 0.9 0.00 0.00 0.00 90 1013.8
20260906052334 61 295 0.0 0.9 0.00 0.00 0.00 91 1013.5
20260906051342 61 273 0.0 0.9 0.00 0.00 0.00 92 1013.5
20260906050335 62 274 0.0 0.9 0.00 0.00 0.00 94 1013.6
20260906045324 63 276 0.0 0.9 0.00 0.00 0.00 96 1013.7
20260906044313 62 276 0.0 0.0 0.00 0.00 0.00 96 1013.6
20260906043329 62 276 0.0 0.0 0.00 0.00 0.00 96 1013.4
20260906042316 62 276 0.0 0.0 0.00 0.00 0.00 96 1013.5
20260906041326 62 276 0.0 0.0 0.00 0.00 0.00 95 1013.4
20260906040333 63 276 0.0 0.0 0.00 0.00 0.00 95 1013.5
20260906035316 63 276 0.0 0.0 0.00 0.00 0.00 95 1013.4
20260906034333 63 276 0.0 0.0 0.00 0.00 0.00 95 1013.3
20260906033328 63 276 0.0 0.0 0.00 0.00 0.00 95 1013.4
20260906032315 63 276 0.0 0.0 0.00 0.00 0.00 95 1013.4
20260906031350 63 276 0.0 0.0 0.00 0.00 0.00 95 1013.4
20260906030338 63 276 0.0 0.0 0.00 0.00 0.00 95 1013.2
20260906025334 63 276 0.0 0.0 0.00 0.00 0.00 95 1013.4
20260906024322 63 276 0.0 0.0 0.00 0.00 0.00 94 1013.4
20260906023337 63 276 0.0 0.0 0.00 0.00 0.00 94 1013.3
20260906022331 64 276 0.0 0.0 0.00 0.00 0.00 94 1013.2
20260906021346 64 276 0.0 0.0 0.00 0.00 0.00 94 1013.2
20260906020334 64 276 0.0 0.0 0.00 0.00 0.00 93 1013.1
20260906015322 64 276 0.0 0.0 0.00 0.00 0.00 93 1013.1
20260906014313 64 276 0.0 0.0 0.00 0.00 0.00 93 1013.1
20260906013329 65 276 0.0 0.0 0.00 0.00 0.00 93 1013.1
20260906012317 64 276 0.0 0.0 0.00 0.00 0.00 93 1012.9
20260906011323 64 276 0.0 0.0 0.00 0.00 0.00 93 1012.9
20260906010358 65 276 0.0 0.0 0.00 0.00 0.00 92 1012.6
20260906005325 65 276 0.0 0.0 0.00 0.00 0.00 92 1012.6
20260906004329 64 276 0.0 0.0 0.00 0.00 0.00 92 1012.6
20260906003316 65 276 0.0 0.0 0.00 0.00 0.00 91 1012.4
20260906002323 65 276 0.0 0.0 0.00 0.00 0.00 91 1012.4
20260906001313 65 276 0.0 0.0 0.00 0.00 0.00 90 1012.2
20260906000329 66 276 0.0 0.0 0.00 0.00 0.00 91 1012.2
20260905235315 66 276 0.0 0.0 0.00 0.00 0.00 90 1012.0
20260905234326 67 276 0.0 0.0 0.00 0.00 0.00 89 1011.8
20260905233314 68 276 0.0 0.0 0.00 0.00 0.00 89 1011.7
20260905231323 69 276 0.0 0.0 0.00 0.00 0.00 90 1011.5
20260905230330 69 276 0.0 0.0 0.00 0.00 0.00 90 1011.6
20260905225318 69 276 0.0 0.0 0.00 0.00 0.00 89 1011.4
20260905224327 70 276 0.0 0.0 0.00 0.00 0.00 88 1011.4
20260905223342 70 276 0.0 0.0 0.00 0.00 0.00 89 1011.4
20260905222337 70 276 0.0 0.0 0.00 0.00 0.00 89 1011.5
20260905221326 70 276 0.0 0.0 0.00 0.00 0.00 88 1011.3
20260905220334 70 276 0.0 0.0 0.00 0.00 0.00 88 1011.2
20260905215344 71 276 0.0 0.0 0.00 0.00 0.00 88 1011.3
20260905214331 71 276 0.0 0.0 0.00 0.00 0.00 88 1011.3
20260905213320 71 276 0.0 0.0 0.00 0.00 0.00 87 1011.1
20260905212327 71 276 0.0 0.0 0.00 0.00 0.00 86 1011.0
20260905211314 72 276 0.0 0.0 0.00 0.00 0.00 86 1011.0
20260905210323 72 276 0.0 0.0 0.00 0.00 0.00 85 1010.9
20260905205313 71 276 0.0 0.0 0.00 0.00 0.00 85 1010.9
20260905204328 71 276 0.0 0.0 0.00 0.00 0.00 85 1010.8
20260905203356 71 276 0.0 0.0 0.00 0.00 0.00 84 1010.7
20260905202322 71 276 0.0 0.0 0.00 0.00 0.00 83 1010.8
20260905201313 72 276 0.0 0.0 0.00 0.00 0.00 80 1010.8
20260905200328 72 276 0.0 0.0 0.00 0.00 0.00 81 1010.6
20260905195317 72 276 0.0 0.0 0.00 0.00 0.00 82 1010.6
20260905194328 72 276 0.0 0.0 0.00 0.00 0.00 81 1010.7
20260905193315 72 276 0.0 0.0 0.00 0.00 0.00 80 1010.6
20260905192330 73 276 0.0 0.0 0.00 0.00 0.00 79 1010.7
20260905191320 73 276 0.0 0.0 0.00 0.00 0.00 78 1010.6
20260905190336 73 276 0.0 0.0 0.00 0.00 0.00 78 1010.7
20260905185324 74 276 0.0 0.0 0.00 0.00 0.00 76 1010.6
20260905184312 73 276 0.0 0.0 0.00 0.00 0.00 75 1010.6
20260905183327 73 276 0.0 0.0 0.00 0.00 0.00 76 1010.7
20260905182336 74 276 0.0 0.9 0.00 0.00 0.00 75 1010.7
20260905181326 74 277 0.0 1.7 0.00 0.00 0.00 73 1010.7
20260905180334 74 284 0.0 2.6 0.00 0.00 0.00 72 1010.8
20260905175320 72 266 0.0 0.0 0.00 0.00 0.00 77 1010.9
20260905174329 73 266 0.0 0.0 0.00 0.00 0.00 76 1010.9
20260905173317 74 266 0.0 2.6 0.00 0.00 0.00 72 1010.9
20260905172324 75 284 0.0 3.5 0.00 0.00 0.00 71 1010.8
20260905171316 74 269 0.9 2.6 0.00 0.00 0.00 69 1010.8
20260905170325 73 281 0.0 1.7 0.00 0.00 0.00 73 1010.9
20260905165332 73 307 0.0 1.7 0.00 0.00 0.00 74 1010.8
20260905164320 73 260 0.0 1.7 0.00 0.00 0.00 68 1010.8